Location: *
(34.8620°S, 39.3380°E)
Time: 02:01:50
(UTC+00:00)

YAOGAN 1 - Pass Details

Date: 02 December 2021
Orbit: 618 x 620 km, 97.9° (Epoch: 27 January)

Event Time Altitude Azimuth Distance (km) Brightness Sun altitude
Rises 18:10:41 0° 190° (S) 2,928 7.0 -18.6°
Reaches altitude 10° 18:13:47 10° 214° (SW) 2,012 6.4 -19.1°
Maximum altitude 18:16:08 14° 247° (WSW) 1,727 5.7 -19.4°
Drops below altitude 10° 18:18:28 10° 279° (W) 1,998 5.6 -19.7°
Sets 18:21:32 0° 303° (WNW) 2,894 6.1 -20.1°
